Year,Month,Day,Hour,Minute,Value (Times are PST for temperature in C)
2009,05,24,00,00,11.80
2009,05,24,00,01,11.80
2009,05,24,00,02,11.80
2009,05,24,00,03,11.80
2009,05,24,00,04,11.80
2009,05,24,00,05,11.80
2009,05,24,00,06,11.80
2009,05,24,00,07,11.70
2009,05,24,00,08,11.70
2009,05,24,00,09,11.70
2009,05,24,00,10,11.70
2009,05,24,00,11,11.70
2009,05,24,00,12,11.70
2009,05,24,00,13,11.70
2009,05,24,00,14,11.60
2009,05,24,00,15,11.60
2009,05,24,00,16,11.60
2009,05,24,00,17,11.60
2009,05,24,00,18,11.60
2009,05,24,00,19,11.50
2009,05,24,00,20,11.50
2009,05,24,00,21,11.50
2009,05,24,00,22,11.40
2009,05,24,00,23,11.40
2009,05,24,00,24,11.40
2009,05,24,00,25,11.40
2009,05,24,00,26,11.30
2009,05,24,00,27,11.30
2009,05,24,00,28,11.30
2009,05,24,00,29,11.20
2009,05,24,00,30,11.20
2009,05,24,00,31,11.20
2009,05,24,00,32,11.20
2009,05,24,00,33,11.10
2009,05,24,00,34,11.10
2009,05,24,00,35,11.10
2009,05,24,00,36,11.00
2009,05,24,00,37,11.00
2009,05,24,00,38,11.00
2009,05,24,00,39,11.00
2009,05,24,00,40,11.00
2009,05,24,00,41,10.90
2009,05,24,00,42,10.90
2009,05,24,00,43,10.90
2009,05,24,00,44,10.90
2009,05,24,00,45,10.90
2009,05,24,00,46,10.90
2009,05,24,00,47,10.80
2009,05,24,00,48,10.80
2009,05,24,00,49,10.80
2009,05,24,00,50,10.80
2009,05,24,00,51,10.70
2009,05,24,00,52,10.70
2009,05,24,00,53,10.70
2009,05,24,00,54,10.70
2009,05,24,00,55,10.70
2009,05,24,00,56,10.70
2009,05,24,00,57,10.70
2009,05,24,00,58,10.60
2009,05,24,00,59,10.60
2009,05,24,01,00,10.60
2009,05,24,01,01,10.60
2009,05,24,01,02,10.60
2009,05,24,01,03,10.60
2009,05,24,01,04,10.50
2009,05,24,01,05,10.50
2009,05,24,01,06,10.40
2009,05,24,01,07,10.40
2009,05,24,01,08,10.40
2009,05,24,01,09,10.40
2009,05,24,01,10,10.40
2009,05,24,01,11,10.40
2009,05,24,01,12,10.40
2009,05,24,01,13,10.40
2009,05,24,01,14,10.40
2009,05,24,01,15,10.40
2009,05,24,01,16,10.40
2009,05,24,01,17,10.40
2009,05,24,01,18,10.40
2009,05,24,01,19,10.40
2009,05,24,01,20,10.40
2009,05,24,01,21,10.30
2009,05,24,01,22,10.30
2009,05,24,01,23,10.30
2009,05,24,01,24,10.30
2009,05,24,01,25,10.30
2009,05,24,01,26,10.30
2009,05,24,01,27,10.30
2009,05,24,01,28,10.30
2009,05,24,01,29,10.20
2009,05,24,01,30,10.20
2009,05,24,01,31,10.20
2009,05,24,01,32,10.20
2009,05,24,01,33,10.20
2009,05,24,01,34,10.20
2009,05,24,01,35,10.20
2009,05,24,01,36,10.20
2009,05,24,01,37,10.10
2009,05,24,01,38,10.10
2009,05,24,01,39,10.10
2009,05,24,01,40,10.10
2009,05,24,01,41,10.10
2009,05,24,01,42,10.10
2009,05,24,01,43,10.10
2009,05,24,01,44,10.10
2009,05,24,01,45,10.10
2009,05,24,01,46,10.00
2009,05,24,01,47,10.00
2009,05,24,01,48,10.00
2009,05,24,01,49,10.00
2009,05,24,01,50,9.90
2009,05,24,01,51,9.90
2009,05,24,01,52,9.90
2009,05,24,01,53,9.90
2009,05,24,01,54,9.80
2009,05,24,01,55,9.80
2009,05,24,01,56,9.80
2009,05,24,01,57,9.80
2009,05,24,01,58,9.70
2009,05,24,01,59,9.70
2009,05,24,02,00,9.70
2009,05,24,02,01,9.70
2009,05,24,02,02,9.70
2009,05,24,02,03,9.70
2009,05,24,02,04,9.70
2009,05,24,02,05,9.70
2009,05,24,02,06,9.70
2009,05,24,02,07,9.70
2009,05,24,02,08,9.70
2009,05,24,02,09,9.70
2009,05,24,02,10,9.70
2009,05,24,02,11,9.70
2009,05,24,02,12,9.60
2009,05,24,02,13,9.60
2009,05,24,02,14,9.60
2009,05,24,02,15,9.60
2009,05,24,02,16,9.60
2009,05,24,02,17,9.60
2009,05,24,02,18,9.60
2009,05,24,02,19,9.60
2009,05,24,02,20,9.60
2009,05,24,02,21,9.60
2009,05,24,02,22,9.60
2009,05,24,02,23,9.60
2009,05,24,02,24,9.60
2009,05,24,02,25,9.60
2009,05,24,02,26,9.60
2009,05,24,02,27,9.60
2009,05,24,02,28,9.60
2009,05,24,02,29,9.50
2009,05,24,02,30,9.50
2009,05,24,02,31,9.50
2009,05,24,02,32,9.50
2009,05,24,02,33,9.60
2009,05,24,02,34,9.60
2009,05,24,02,35,9.60
2009,05,24,02,36,9.60
2009,05,24,02,37,9.60
2009,05,24,02,38,9.60
2009,05,24,02,39,9.60
2009,05,24,02,40,9.70
2009,05,24,02,41,9.70
2009,05,24,02,42,9.70
2009,05,24,02,43,9.70
2009,05,24,02,44,9.80
2009,05,24,02,45,9.80
2009,05,24,02,46,9.80
2009,05,24,02,47,9.80
2009,05,24,02,48,9.80
2009,05,24,02,49,9.80
2009,05,24,02,50,9.70
2009,05,24,02,51,9.60
2009,05,24,02,52,9.50
2009,05,24,02,53,9.40
2009,05,24,02,54,9.30
2009,05,24,02,55,9.20
2009,05,24,02,56,9.20
2009,05,24,02,57,9.10
2009,05,24,02,58,9.10
2009,05,24,02,59,9.00
2009,05,24,03,00,9.00
2009,05,24,03,01,8.90
2009,05,24,03,02,8.90
2009,05,24,03,03,8.90
2009,05,24,03,04,8.80
2009,05,24,03,05,8.80
2009,05,24,03,06,8.80
2009,05,24,03,07,8.70
2009,05,24,03,08,8.70
2009,05,24,03,09,8.70
2009,05,24,03,10,8.70
2009,05,24,03,11,8.70
2009,05,24,03,12,8.70
2009,05,24,03,13,8.60
2009,05,24,03,14,8.60
2009,05,24,03,15,8.60
2009,05,24,03,16,8.60
2009,05,24,03,17,8.60
2009,05,24,03,18,8.60
2009,05,24,03,19,8.60
2009,05,24,03,20,8.70
2009,05,24,03,21,8.70
2009,05,24,03,22,8.70
2009,05,24,03,23,8.70
2009,05,24,03,24,8.70
2009,05,24,03,25,8.70
2009,05,24,03,26,8.80
2009,05,24,03,27,8.80
2009,05,24,03,28,8.80
2009,05,24,03,29,8.80
2009,05,24,03,30,8.80
2009,05,24,03,31,8.80
2009,05,24,03,32,8.80
2009,05,24,03,33,8.70
2009,05,24,03,34,8.70
2009,05,24,03,35,8.70
2009,05,24,03,36,8.60
2009,05,24,03,37,8.60
2009,05,24,03,38,8.60
2009,05,24,03,39,8.50
2009,05,24,03,40,8.50
2009,05,24,03,41,8.40
2009,05,24,03,42,8.40
2009,05,24,03,43,8.40
2009,05,24,03,44,8.40
2009,05,24,03,45,8.40
2009,05,24,03,46,8.40
2009,05,24,03,47,8.40
2009,05,24,03,48,8.30
2009,05,24,03,49,8.30
2009,05,24,03,50,8.30
2009,05,24,03,51,8.20
2009,05,24,03,52,8.20
2009,05,24,03,53,8.20
2009,05,24,03,54,8.20
2009,05,24,03,55,8.20
2009,05,24,03,56,8.20
2009,05,24,03,57,8.20
2009,05,24,03,58,8.20
2009,05,24,03,59,8.20
2009,05,24,04,00,8.10
2009,05,24,04,01,8.10
2009,05,24,04,02,8.10
2009,05,24,04,03,8.10
2009,05,24,04,04,8.10
2009,05,24,04,05,8.00
2009,05,24,04,06,8.00
2009,05,24,04,07,8.00
2009,05,24,04,08,8.00
2009,05,24,04,09,8.00
2009,05,24,04,10,8.00
2009,05,24,04,11,8.00
2009,05,24,04,12,8.00
2009,05,24,04,13,8.00
2009,05,24,04,14,8.00
2009,05,24,04,15,8.00
2009,05,24,04,16,8.00
2009,05,24,04,17,8.00
2009,05,24,04,18,8.00
2009,05,24,04,19,8.00
2009,05,24,04,20,8.00
2009,05,24,04,21,8.10
2009,05,24,04,22,8.10
2009,05,24,04,23,8.10
2009,05,24,04,24,8.10
2009,05,24,04,25,8.10
2009,05,24,04,26,8.10
2009,05,24,04,27,8.10
2009,05,24,04,28,8.10
2009,05,24,04,29,8.10
2009,05,24,04,30,8.10
2009,05,24,04,31,8.00
2009,05,24,04,32,8.00
2009,05,24,04,33,8.00
2009,05,24,04,34,8.00
2009,05,24,04,35,7.90
2009,05,24,04,36,7.90
2009,05,24,04,37,7.80
2009,05,24,04,38,7.80
2009,05,24,04,39,7.80
2009,05,24,04,40,7.70
2009,05,24,04,41,7.70
2009,05,24,04,42,7.60
2009,05,24,04,43,7.60
2009,05,24,04,44,7.60
2009,05,24,04,45,7.60
2009,05,24,04,46,7.50
2009,05,24,04,47,7.50
2009,05,24,04,48,7.50
2009,05,24,04,49,7.50
2009,05,24,04,50,7.50
2009,05,24,04,51,7.40
2009,05,24,04,52,7.40
2009,05,24,04,53,7.40
2009,05,24,04,54,7.50
2009,05,24,04,55,7.50
2009,05,24,04,56,7.50
2009,05,24,04,57,7.50
2009,05,24,04,58,7.50
2009,05,24,04,59,7.40
2009,05,24,05,00,7.40
2009,05,24,05,01,7.40
2009,05,24,05,02,7.50
2009,05,24,05,03,7.40
2009,05,24,05,04,7.40
2009,05,24,05,05,7.40
2009,05,24,05,06,7.40
2009,05,24,05,07,7.50
2009,05,24,05,08,7.60
2009,05,24,05,09,7.60
2009,05,24,05,10,7.60
2009,05,24,05,11,7.70
2009,05,24,05,12,7.70
2009,05,24,05,13,7.60
2009,05,24,05,14,7.60
2009,05,24,05,15,7.60
2009,05,24,05,16,7.60
2009,05,24,05,17,7.60
2009,05,24,05,18,7.60
2009,05,24,05,19,7.60
2009,05,24,05,20,7.60
2009,05,24,05,21,7.60
2009,05,24,05,22,7.60
2009,05,24,05,23,7.60
2009,05,24,05,24,7.60
2009,05,24,05,25,7.50
2009,05,24,05,26,7.50
2009,05,24,05,27,7.40
2009,05,24,05,28,7.30
2009,05,24,05,29,7.30
2009,05,24,05,30,7.30
2009,05,24,05,31,7.30
2009,05,24,05,32,7.40
2009,05,24,05,33,7.40
2009,05,24,05,34,7.40
2009,05,24,05,35,7.40
2009,05,24,05,36,7.40
2009,05,24,05,37,7.40
2009,05,24,05,38,7.40
2009,05,24,05,39,7.40
2009,05,24,05,40,7.30
2009,05,24,05,41,7.40
2009,05,24,05,42,7.40
2009,05,24,05,43,7.40
2009,05,24,05,44,7.40
2009,05,24,05,45,7.50
2009,05,24,05,46,7.50
2009,05,24,05,47,7.50
2009,05,24,05,48,7.60
2009,05,24,05,49,7.60
2009,05,24,05,50,7.60
2009,05,24,05,51,7.60
2009,05,24,05,52,7.60
2009,05,24,05,53,7.60
2009,05,24,05,54,7.60
2009,05,24,05,55,7.60
2009,05,24,05,56,7.70
2009,05,24,05,57,7.70
2009,05,24,05,58,7.70
2009,05,24,05,59,7.70
2009,05,24,06,00,7.70
2009,05,24,06,01,7.70
2009,05,24,06,02,7.80
2009,05,24,06,03,7.80
2009,05,24,06,04,7.90
2009,05,24,06,05,7.90
2009,05,24,06,06,8.00
2009,05,24,06,07,8.00
2009,05,24,06,08,8.10
2009,05,24,06,09,8.10
2009,05,24,06,10,8.10
2009,05,24,06,11,8.10
2009,05,24,06,12,8.10
2009,05,24,06,13,8.10
2009,05,24,06,14,8.10
2009,05,24,06,15,8.10
2009,05,24,06,16,8.10
2009,05,24,06,17,8.10
2009,05,24,06,18,8.20
2009,05,24,06,19,8.20
2009,05,24,06,20,8.20
2009,05,24,06,21,8.20
2009,05,24,06,22,8.20
2009,05,24,06,23,8.20
2009,05,24,06,24,8.30
2009,05,24,06,25,8.30
2009,05,24,06,26,8.40
2009,05,24,06,27,8.40
2009,05,24,06,28,8.40
2009,05,24,06,29,8.40
2009,05,24,06,30,8.40
2009,05,24,06,31,8.40
2009,05,24,06,32,8.40
2009,05,24,06,33,8.40
2009,05,24,06,34,8.40
2009,05,24,06,35,8.40
2009,05,24,06,36,8.40
2009,05,24,06,37,8.40
2009,05,24,06,38,8.40
2009,05,24,06,39,8.40
2009,05,24,06,40,8.40
2009,05,24,06,41,8.40
2009,05,24,06,42,8.40
2009,05,24,06,43,8.50
2009,05,24,06,44,8.50
2009,05,24,06,45,8.50
2009,05,24,06,46,8.50
2009,05,24,06,47,8.60
2009,05,24,06,48,8.60
2009,05,24,06,49,8.60
2009,05,24,06,50,8.60
2009,05,24,06,51,8.60
2009,05,24,06,52,8.60
2009,05,24,06,53,8.70
2009,05,24,06,54,8.70
2009,05,24,06,55,8.70
2009,05,24,06,56,8.70
2009,05,24,06,57,8.80
2009,05,24,06,58,8.80
2009,05,24,06,59,8.90
2009,05,24,07,00,9.00
2009,05,24,07,01,9.00
2009,05,24,07,02,9.20
2009,05,24,07,03,9.30
2009,05,24,07,04,9.40
2009,05,24,07,05,9.40
2009,05,24,07,06,9.50
2009,05,24,07,07,9.60
2009,05,24,07,08,9.60
2009,05,24,07,09,9.70
2009,05,24,07,10,9.80
2009,05,24,07,11,9.80
2009,05,24,07,12,9.90
2009,05,24,07,13,10.00
2009,05,24,07,14,10.00
2009,05,24,07,15,10.10
2009,05,24,07,16,10.20
2009,05,24,07,17,10.20
2009,05,24,07,18,10.20
2009,05,24,07,19,10.30
2009,05,24,07,20,10.30
2009,05,24,07,21,10.30
2009,05,24,07,22,10.30
2009,05,24,07,23,10.30
2009,05,24,07,24,10.40
2009,05,24,07,25,10.40
2009,05,24,07,26,10.50
2009,05,24,07,27,10.50
2009,05,24,07,28,10.60
2009,05,24,07,29,10.60
2009,05,24,07,30,10.60
2009,05,24,07,31,10.70
2009,05,24,07,32,10.80
2009,05,24,07,33,10.80
2009,05,24,07,34,10.90
2009,05,24,07,35,11.00
2009,05,24,07,36,11.10
2009,05,24,07,37,11.10
2009,05,24,07,38,11.20
2009,05,24,07,39,11.30
2009,05,24,07,40,11.30
2009,05,24,07,41,11.40
2009,05,24,07,42,11.50
2009,05,24,07,43,11.50
2009,05,24,07,44,11.60
2009,05,24,07,45,11.60
2009,05,24,07,46,11.70
2009,05,24,07,47,11.70
2009,05,24,07,48,11.70
2009,05,24,07,49,11.70
2009,05,24,07,50,11.80
2009,05,24,07,51,11.80
2009,05,24,07,52,11.70
2009,05,24,07,53,11.70
2009,05,24,07,54,11.70
2009,05,24,07,55,11.70
2009,05,24,07,56,11.70
2009,05,24,07,57,11.70
2009,05,24,07,58,11.80
2009,05,24,07,59,11.80
2009,05,24,08,00,11.80
2009,05,24,08,01,11.80
2009,05,24,08,02,11.80
2009,05,24,08,03,11.80
2009,05,24,08,04,11.80
2009,05,24,08,05,11.80
2009,05,24,08,06,11.80
2009,05,24,08,07,11.80
2009,05,24,08,08,11.80
2009,05,24,08,09,11.80
2009,05,24,08,10,11.80
2009,05,24,08,11,11.80
2009,05,24,08,12,11.80
2009,05,24,08,13,11.90
2009,05,24,08,14,11.90
2009,05,24,08,15,11.90
2009,05,24,08,16,11.90
2009,05,24,08,17,11.90
2009,05,24,08,18,11.90
2009,05,24,08,19,11.90
2009,05,24,08,20,11.80
2009,05,24,08,21,11.80
2009,05,24,08,22,11.70
2009,05,24,08,23,11.60
2009,05,24,08,24,11.60
2009,05,24,08,25,11.60
2009,05,24,08,26,11.70
2009,05,24,08,27,11.70
2009,05,24,08,28,11.70
2009,05,24,08,29,11.70
2009,05,24,08,30,11.60
2009,05,24,08,31,11.60
2009,05,24,08,32,11.50
2009,05,24,08,33,11.30
2009,05,24,08,34,11.20
2009,05,24,08,35,11.10
2009,05,24,08,36,11.10
2009,05,24,08,37,11.10
2009,05,24,08,38,11.20
2009,05,24,08,39,11.30
2009,05,24,08,40,11.30
2009,05,24,08,41,11.40
2009,05,24,08,42,11.40
2009,05,24,08,43,11.40
2009,05,24,08,44,11.40
2009,05,24,08,45,11.50
2009,05,24,08,46,11.60
2009,05,24,08,47,11.60
2009,05,24,08,48,11.60
2009,05,24,08,49,11.70
2009,05,24,08,50,11.80
2009,05,24,08,51,11.80
2009,05,24,08,52,11.80
2009,05,24,08,53,11.70
2009,05,24,08,54,11.60
2009,05,24,08,55,11.50
2009,05,24,08,56,11.40
2009,05,24,08,57,11.40
2009,05,24,08,58,11.40
2009,05,24,08,59,11.40
2009,05,24,09,00,11.40
2009,05,24,09,01,11.50
2009,05,24,09,02,11.60
2009,05,24,09,03,11.60
2009,05,24,09,04,11.60
2009,05,24,09,05,11.70
2009,05,24,09,06,11.80
2009,05,24,09,07,11.80
2009,05,24,09,08,11.90
2009,05,24,09,09,12.00
2009,05,24,09,10,12.00
2009,05,24,09,11,12.10
2009,05,24,09,12,12.20
2009,05,24,09,13,12.30
2009,05,24,09,14,12.40
2009,05,24,09,15,12.40
2009,05,24,09,16,12.40
2009,05,24,09,17,12.40
2009,05,24,09,18,12.40
2009,05,24,09,19,12.40
2009,05,24,09,20,12.50
2009,05,24,09,21,12.50
2009,05,24,09,22,12.60
2009,05,24,09,23,12.60
2009,05,24,09,24,12.60
2009,05,24,09,25,12.50
2009,05,24,09,26,12.40
2009,05,24,09,27,12.40
2009,05,24,09,28,12.40
2009,05,24,09,29,12.30
2009,05,24,09,30,12.30
2009,05,24,09,31,12.30
2009,05,24,09,32,12.30
2009,05,24,09,33,12.40
2009,05,24,09,34,12.50
2009,05,24,09,35,12.50
2009,05,24,09,36,12.60
2009,05,24,09,37,12.60
2009,05,24,09,38,12.70
2009,05,24,09,39,12.60
2009,05,24,09,40,12.60
2009,05,24,09,41,12.60
2009,05,24,09,42,12.70
2009,05,24,09,43,12.60
2009,05,24,09,44,12.70
2009,05,24,09,45,12.60
2009,05,24,09,46,12.60
2009,05,24,09,47,12.60
2009,05,24,09,48,12.70
2009,05,24,09,49,12.60
2009,05,24,09,50,12.60
2009,05,24,09,51,12.60
2009,05,24,09,52,12.60
2009,05,24,09,53,12.60
2009,05,24,09,54,12.70
2009,05,24,09,55,12.80
2009,05,24,09,56,12.90
2009,05,24,09,57,13.00
2009,05,24,09,58,13.10
2009,05,24,09,59,13.20
2009,05,24,10,00,13.30
2009,05,24,10,01,13.40
2009,05,24,10,02,13.60
2009,05,24,10,03,13.70
2009,05,24,10,04,13.80
2009,05,24,10,05,13.90
2009,05,24,10,06,13.80
2009,05,24,10,07,13.80
2009,05,24,10,08,13.90
2009,05,24,10,09,14.00
2009,05,24,10,10,14.10
2009,05,24,10,11,14.30
2009,05,24,10,12,14.40
2009,05,24,10,13,14.40
2009,05,24,10,14,14.50
2009,05,24,10,15,14.50
2009,05,24,10,16,14.50
2009,05,24,10,17,14.40
2009,05,24,10,18,14.50
2009,05,24,10,19,14.60
2009,05,24,10,20,14.70
2009,05,24,10,21,14.80
2009,05,24,10,22,14.80
2009,05,24,10,23,14.80
2009,05,24,10,24,14.70
2009,05,24,10,25,14.60
2009,05,24,10,26,14.60
2009,05,24,10,27,14.60
2009,05,24,10,28,14.70
2009,05,24,10,29,14.70
2009,05,24,10,30,14.80
2009,05,24,10,31,14.90
2009,05,24,10,32,14.90
2009,05,24,10,33,15.00
2009,05,24,10,34,15.00
2009,05,24,10,35,15.10
2009,05,24,10,36,15.20
2009,05,24,10,37,15.20
2009,05,24,10,38,15.10
2009,05,24,10,39,15.20
2009,05,24,10,40,15.30
2009,05,24,10,41,15.30
2009,05,24,10,42,15.40
2009,05,24,10,43,15.50
2009,05,24,10,44,15.70
2009,05,24,10,45,15.70
2009,05,24,10,46,15.80
2009,05,24,10,47,15.90
2009,05,24,10,48,16.00
2009,05,24,10,49,16.00
2009,05,24,10,50,16.00
2009,05,24,10,51,16.00
2009,05,24,10,52,15.90
2009,05,24,10,53,16.00
2009,05,24,10,54,16.00
2009,05,24,10,55,16.10
2009,05,24,10,56,16.20
2009,05,24,10,57,16.30
2009,05,24,10,58,16.20
2009,05,24,10,59,16.20
2009,05,24,11,00,16.10
2009,05,24,11,01,16.00
2009,05,24,11,02,15.80
2009,05,24,11,03,15.80
2009,05,24,11,04,15.80
2009,05,24,11,05,15.70
2009,05,24,11,06,15.50
2009,05,24,11,07,15.30
2009,05,24,11,08,15.20
2009,05,24,11,09,15.30
2009,05,24,11,10,15.40
2009,05,24,11,11,15.50
2009,05,24,11,12,15.70
2009,05,24,11,13,15.70
2009,05,24,11,14,15.70
2009,05,24,11,15,15.70
2009,05,24,11,16,15.60
2009,05,24,11,17,15.50
2009,05,24,11,18,15.50
2009,05,24,11,19,15.40
2009,05,24,11,20,15.40
2009,05,24,11,21,15.40
2009,05,24,11,22,15.40
2009,05,24,11,23,15.20
2009,05,24,11,24,15.10
2009,05,24,11,25,15.00
2009,05,24,11,26,15.00
2009,05,24,11,27,15.10
2009,05,24,11,28,15.10
2009,05,24,11,29,15.10
2009,05,24,11,30,15.00
2009,05,24,11,31,15.00
2009,05,24,11,32,14.90
2009,05,24,11,33,14.70
2009,05,24,11,34,14.80
2009,05,24,11,35,15.00
2009,05,24,11,36,15.00
2009,05,24,11,37,15.00
2009,05,24,11,38,14.80
2009,05,24,11,39,14.80
2009,05,24,11,40,14.90
2009,05,24,11,41,14.90
2009,05,24,11,42,14.80
2009,05,24,11,43,14.80
2009,05,24,11,44,14.80
2009,05,24,11,45,14.70
2009,05,24,11,46,14.60
2009,05,24,11,47,14.60
2009,05,24,11,48,14.60
2009,05,24,11,49,14.70
2009,05,24,11,50,14.80
2009,05,24,11,51,14.70
2009,05,24,11,52,14.60
2009,05,24,11,53,14.50
2009,05,24,11,54,14.60
2009,05,24,11,55,14.60
2009,05,24,11,56,14.80
2009,05,24,11,57,14.90
2009,05,24,11,58,15.00
2009,05,24,11,59,14.90
2009,05,24,12,00,14.90
2009,05,24,12,01,14.90
2009,05,24,12,02,14.80
2009,05,24,12,03,14.70
2009,05,24,12,04,14.80
2009,05,24,12,05,14.90
2009,05,24,12,06,15.00
2009,05,24,12,07,15.00
2009,05,24,12,08,15.00
2009,05,24,12,09,15.00
2009,05,24,12,10,15.00
2009,05,24,12,11,15.00
2009,05,24,12,12,15.00
2009,05,24,12,13,15.20
2009,05,24,12,14,15.30
2009,05,24,12,15,15.30
2009,05,24,12,16,15.20
2009,05,24,12,17,15.20
2009,05,24,12,18,15.30
2009,05,24,12,19,15.30
2009,05,24,12,20,15.20
2009,05,24,12,21,15.30
2009,05,24,12,22,15.30
2009,05,24,12,23,15.30
2009,05,24,12,24,15.40
2009,05,24,12,25,15.30
2009,05,24,12,26,15.10
2009,05,24,12,27,15.10
2009,05,24,12,28,15.20
2009,05,24,12,29,15.00
2009,05,24,12,30,15.00
2009,05,24,12,31,14.90
2009,05,24,12,32,15.00
2009,05,24,12,33,15.00
2009,05,24,12,34,15.00
2009,05,24,12,35,15.00
2009,05,24,12,36,15.10
2009,05,24,12,37,15.10
2009,05,24,12,38,15.10
2009,05,24,12,39,15.10
2009,05,24,12,40,15.10
2009,05,24,12,41,15.00
2009,05,24,12,42,15.20
2009,05,24,12,43,15.30
2009,05,24,12,44,15.40
2009,05,24,12,45,15.40
2009,05,24,12,46,15.40
2009,05,24,12,47,15.50
2009,05,24,12,48,15.50
2009,05,24,12,49,15.50
2009,05,24,12,50,15.30
2009,05,24,12,51,15.40
2009,05,24,12,52,15.50
2009,05,24,12,53,15.60
2009,05,24,12,54,15.60
2009,05,24,12,55,15.70
2009,05,24,12,56,15.80
2009,05,24,12,57,15.80
2009,05,24,12,58,15.70
2009,05,24,12,59,15.60
2009,05,24,13,00,15.50
2009,05,24,13,01,15.50
2009,05,24,13,02,15.60
2009,05,24,13,03,15.80
2009,05,24,13,04,15.80
2009,05,24,13,05,15.70
2009,05,24,13,06,15.60
2009,05,24,13,07,15.60
2009,05,24,13,08,15.60
2009,05,24,13,09,15.60
2009,05,24,13,10,15.60
2009,05,24,13,11,15.70
2009,05,24,13,12,15.70
2009,05,24,13,13,15.80
2009,05,24,13,14,15.70
2009,05,24,13,15,15.60
2009,05,24,13,16,15.50
2009,05,24,13,17,15.50
2009,05,24,13,18,15.40
2009,05,24,13,19,15.50
2009,05,24,13,20,15.60
2009,05,24,13,21,15.60
2009,05,24,13,22,15.50
2009,05,24,13,23,15.40
2009,05,24,13,24,15.50
2009,05,24,13,25,15.60
2009,05,24,13,26,15.80
2009,05,24,13,27,15.80
2009,05,24,13,28,15.80
2009,05,24,13,29,16.00
2009,05,24,13,30,16.00
2009,05,24,13,31,16.00
2009,05,24,13,32,15.90
2009,05,24,13,33,15.90
2009,05,24,13,34,16.00
2009,05,24,13,35,16.00
2009,05,24,13,36,16.00
2009,05,24,13,37,16.10
2009,05,24,13,38,16.20
2009,05,24,13,39,16.20
2009,05,24,13,40,16.10
2009,05,24,13,41,16.10
2009,05,24,13,42,16.20
2009,05,24,13,43,16.30
2009,05,24,13,44,16.40
2009,05,24,13,45,16.40
2009,05,24,13,46,16.40
2009,05,24,13,47,16.30
2009,05,24,13,48,16.20
2009,05,24,13,49,16.10
2009,05,24,13,50,15.80
2009,05,24,13,51,15.70
2009,05,24,13,52,15.60
2009,05,24,13,53,15.60
2009,05,24,13,54,15.60
2009,05,24,13,55,15.70
2009,05,24,13,56,15.80
2009,05,24,13,57,15.80
2009,05,24,13,58,15.90
2009,05,24,13,59,16.20
2009,05,24,14,00,16.30
2009,05,24,14,01,16.30
2009,05,24,14,02,16.30
2009,05,24,14,03,16.10
2009,05,24,14,04,15.90
2009,05,24,14,05,15.70
2009,05,24,14,06,15.60
2009,05,24,14,07,15.50
2009,05,24,14,08,15.40
2009,05,24,14,09,15.40
2009,05,24,14,10,15.30
2009,05,24,14,11,15.30
2009,05,24,14,12,15.20
2009,05,24,14,13,15.30
2009,05,24,14,14,15.50
2009,05,24,14,15,15.50
2009,05,24,14,16,15.50
2009,05,24,14,17,15.50
2009,05,24,14,18,15.60
2009,05,24,14,19,15.60
2009,05,24,14,20,15.80
2009,05,24,14,21,15.90
2009,05,24,14,22,16.00
2009,05,24,14,23,15.90
2009,05,24,14,24,16.00
2009,05,24,14,25,16.10
2009,05,24,14,26,16.10
2009,05,24,14,27,16.10
2009,05,24,14,28,16.10
2009,05,24,14,29,16.10
2009,05,24,14,30,16.10
2009,05,24,14,31,16.20
2009,05,24,14,32,16.20
2009,05,24,14,33,16.20
2009,05,24,14,34,16.10
2009,05,24,14,35,16.10
2009,05,24,14,36,16.00
2009,05,24,14,37,16.10
2009,05,24,14,38,16.10
2009,05,24,14,39,16.10
2009,05,24,14,40,16.20
2009,05,24,14,41,16.20
2009,05,24,14,42,16.20
2009,05,24,14,43,16.10
2009,05,24,14,44,16.20
2009,05,24,14,45,16.10
2009,05,24,14,46,16.10
2009,05,24,14,47,16.00
2009,05,24,14,48,15.90
2009,05,24,14,49,15.80
2009,05,24,14,50,15.70
2009,05,24,14,51,15.80
2009,05,24,14,52,15.80
2009,05,24,14,53,15.80
2009,05,24,14,54,15.80
2009,05,24,14,55,15.90
2009,05,24,14,56,16.00
2009,05,24,14,57,16.10
2009,05,24,14,58,16.10
2009,05,24,14,59,16.10
2009,05,24,15,00,16.10
2009,05,24,15,01,16.10
2009,05,24,15,02,16.00
2009,05,24,15,03,16.00
2009,05,24,15,04,16.00
2009,05,24,15,05,16.10
2009,05,24,15,06,16.10
2009,05,24,15,07,16.00
2009,05,24,15,08,15.90
2009,05,24,15,09,15.80
2009,05,24,15,10,15.70
2009,05,24,15,11,15.60
2009,05,24,15,12,15.50
2009,05,24,15,13,15.40
2009,05,24,15,14,15.40
2009,05,24,15,15,15.40
2009,05,24,15,16,15.40
2009,05,24,15,17,15.50
2009,05,24,15,18,15.60
2009,05,24,15,19,15.50
2009,05,24,15,20,15.40
2009,05,24,15,21,15.30
2009,05,24,15,22,15.30
2009,05,24,15,23,15.40
2009,05,24,15,24,15.70
2009,05,24,15,25,15.70
2009,05,24,15,26,15.70
2009,05,24,15,27,15.70
2009,05,24,15,28,15.50
2009,05,24,15,29,15.40
2009,05,24,15,30,15.30
2009,05,24,15,31,15.20
2009,05,24,15,32,15.40
2009,05,24,15,33,15.40
2009,05,24,15,34,15.40
2009,05,24,15,35,15.30
2009,05,24,15,36,15.40
2009,05,24,15,37,15.40
2009,05,24,15,38,15.40
2009,05,24,15,39,15.30
2009,05,24,15,40,15.30
2009,05,24,15,41,15.30
2009,05,24,15,42,15.20
2009,05,24,15,43,15.00
2009,05,24,15,44,15.00
2009,05,24,15,45,15.00
2009,05,24,15,46,15.10
2009,05,24,15,47,15.20
2009,05,24,15,48,15.10
2009,05,24,15,49,15.10
2009,05,24,15,50,15.20
2009,05,24,15,51,15.30
2009,05,24,15,52,15.50
2009,05,24,15,53,15.60
2009,05,24,15,54,15.70
2009,05,24,15,55,15.70
2009,05,24,15,56,15.60
2009,05,24,15,57,15.40
2009,05,24,15,58,15.30
2009,05,24,15,59,15.30
2009,05,24,16,00,15.20
2009,05,24,16,01,15.30
2009,05,24,16,02,15.30
2009,05,24,16,03,15.30
2009,05,24,16,04,15.40
2009,05,24,16,05,15.30
2009,05,24,16,06,15.00
2009,05,24,16,07,14.90
2009,05,24,16,08,14.70
2009,05,24,16,09,14.60
2009,05,24,16,10,14.50
2009,05,24,16,11,14.40
2009,05,24,16,12,14.10
2009,05,24,16,13,14.00
2009,05,24,16,14,13.90
2009,05,24,16,15,14.00
2009,05,24,16,16,14.10
2009,05,24,16,17,14.20
2009,05,24,16,18,14.20
2009,05,24,16,19,14.10
2009,05,24,16,20,14.10
2009,05,24,16,21,14.00
2009,05,24,16,22,14.10
2009,05,24,16,23,14.20
2009,05,24,16,24,14.30
2009,05,24,16,25,14.20
2009,05,24,16,26,14.10
2009,05,24,16,27,14.20
2009,05,24,16,28,14.20
2009,05,24,16,29,14.30
2009,05,24,16,30,14.40
2009,05,24,16,31,14.30
2009,05,24,16,32,14.40
2009,05,24,16,33,14.30
2009,05,24,16,34,14.20
2009,05,24,16,35,14.10
2009,05,24,16,36,14.10
2009,05,24,16,37,14.20
2009,05,24,16,38,14.30
2009,05,24,16,39,14.40
2009,05,24,16,40,14.40
2009,05,24,16,41,14.50
2009,05,24,16,42,14.50
2009,05,24,16,43,14.60
2009,05,24,16,44,14.70
2009,05,24,16,45,14.70
2009,05,24,16,46,14.80
2009,05,24,16,47,14.80
2009,05,24,16,48,14.80
2009,05,24,16,49,14.80
2009,05,24,16,50,14.80
2009,05,24,16,51,14.80
2009,05,24,16,52,14.80
2009,05,24,16,53,15.00
2009,05,24,16,54,15.00
2009,05,24,16,55,15.00
2009,05,24,16,56,15.00
2009,05,24,16,57,15.00
2009,05,24,16,58,15.00
2009,05,24,16,59,15.00
2009,05,24,17,00,14.80
2009,05,24,17,01,14.70
2009,05,24,17,02,14.60
2009,05,24,17,03,14.60
2009,05,24,17,04,14.60
2009,05,24,17,05,14.60
2009,05,24,17,06,14.70
2009,05,24,17,07,14.80
2009,05,24,17,08,14.90
2009,05,24,17,09,15.00
2009,05,24,17,10,15.00
2009,05,24,17,11,15.00
2009,05,24,17,12,15.00
2009,05,24,17,13,15.10
2009,05,24,17,14,15.30
2009,05,24,17,15,15.50
2009,05,24,17,16,15.60
2009,05,24,17,17,15.80
2009,05,24,17,18,16.00
2009,05,24,17,19,16.00
2009,05,24,17,20,16.10
2009,05,24,17,21,16.30
2009,05,24,17,22,16.40
2009,05,24,17,23,16.60
2009,05,24,17,24,16.70
2009,05,24,17,25,16.90
2009,05,24,17,26,17.00
2009,05,24,17,27,17.10
2009,05,24,17,28,17.10
2009,05,24,17,29,17.20
2009,05,24,17,30,17.20
2009,05,24,17,31,17.30
2009,05,24,17,32,17.30
2009,05,24,17,33,17.40